SCP
0 0 0 0 0 0 0 0 0 0 0 0 0 0 0 0 0 0 0 0 0 0
0 0 0 0 0 0 0 0 0 0 0 0 0 0 0 0 0 0 0 0 0 0
0 0 0 0 0 0 0 0 0 0 0 0 0 0 0 0 0 0 0 0 0 0
0 0 0 0 0 0 0 0 0 0 0 0 0 0 0 0 0 0 0 0 0 0
0 0 0 0 0 0 0 0 0 0 0 0 0 0 0 0 0 0 0 0 0 0
0 0 0 0 0 0 0 0 0 0 0 0 0 0 0 0 0 0 0 0 0 0
0 0 0 0 0 0 0 0 0 0 0 0 0 0 0 0 0 0 0 0 0 0
0 0 0 0 0 0 0 0 0 0 0 0 0 0 0 0 0 0 0 0 0 0
0 0 0 0 0 0 0 0 0 0 0 0 0 0 0 0 0 0 0 0 0 0
0 0 0 0 0 0 0 0 0 0 0 0 0 0 0 0 0 0 0 0 0 0
0 0 0 0 0 0 0 0 0 0 0 0 0 0 0 0 0 0 0 0 0 0
0 0 0 0 0 0 0 0 0 0 0 0 0 0 0 0 0 0 0 0 0 0
0 0 0 0 0 0 0 0 0 0 0 0 0 0 0 0 0 0 0 0 0 0
0 0 0 0 0 0 0 0 0 0 0 0 0 0 0 0 0 0 0 0 0 0
Wind_Speed_500mb
40 35 36 43 42 26 30 39 39 33 16 19 30 30 32 37 43 44 38 41 33 40
33 33 30 27 22 20 21 34 34 46 35 32 45 38 33 29 34 35 27 31 33 31
26 28 26 17 16 14 20 23 24 25 37 51 43 38 37 29 23 26 24 26 23 24
25 24 20 15 18 22 23 24 26 26 28 27 27 28 23 22 22 18 18 18 17 11
17 15 11 8 5 1 6 3 9 12 14 15 18 16 15 14 14 14 11 8 11 12
12 9 8 6 6 4 6 9 14 17 17 16 16 14 11 9 11 12 13 8 7 6
11 10 11 19 23 15 19 26 18 14 15 14 12 12 10 14 14 11 11 10 9 7
7 8 4 6 9 10 10 8 12 13 15 14 12 11 13 15 14 12 11 7 9 8
14 11 11 12 9 8 9 12 11 12 13 16 16 12 12 10 9 10 10 7 5 2
18 16 15 15 14 13 11 10 12 13 12 13 13 13 13 12 10 9 8 5 2 1
14 13 12 12 12 11 12 11 10 12 13 13 14 15 14 11 9 6 4 2 1 2
11 9 7 7 8 8 9 11 12 13 14 14 15 14 12 9 7 4 1 2 3 6
8 9 7 6 6 6 8 9 8 9 11 13 11 10 7 5 4 3 3 4 7 10
5 6 6 5 6 6 6 7 9 11 11 10 10 8 6 5 6 5 6 8 10 12
Wind_Direction_500mb
206 210 215 220 223 232 214 204 200 192 242 253 255 253 255 264 268 266 281 268 266 275
197 213 198 197 197 198 200 206 210 231 251 249 264 271 278 270 251 257 255 277 278 278
189 186 201 219 219 231 226 231 234 242 233 236 245 266 263 249 238 251 275 284 280 283
152 154 141 156 175 189 204 215 217 227 232 236 242 231 228 232 261 265 281 276 271 255
69 70 87 95 100 143 161 212 277 262 246 253 249 232 237 253 260 270 244 232 256 257
93 82 67 55 13 320 303 309 289 257 244 231 230 248 247 240 206 248 240 229 230 222
327 303 256 259 257 274 291 272 252 230 234 229 237 224 239 246 231 213 175 182 192 205
282 282 259 231 212 218 230 198 203 205 215 217 230 219 195 183 176 179 194 182 177 172
162 149 140 143 145 128 119 132 136 141 147 146 144 144 147 148 175 157 139 147 141 98
130 133 137 132 136 129 139 157 160 156 160 161 159 155 151 152 161 153 152 157 122 356
126 130 134 138 149 154 162 168 176 173 165 162 166 162 165 165 150 149 174 166 220 316
128 129 138 141 147 155 152 155 161 162 160 161 174 167 163 156 162 173 236 292 304 328
136 136 143 149 161 169 171 173 176 189 179 171 171 164 159 176 194 219 254 289 318 327
150 146 148 160 177 188 202 192 198 200 196 195 193 191 205 220 236 256 288 305 309 314
Wind_Speed_850mb
40 35 36 43 42 26 30 39 39 33 16 19 30 30 32 37 43 44 38 41 33 40
33 33 30 27 22 20 21 34 34 46 35 32 45 38 33 29 34 35 27 31 33 31
26 28 26 17 16 14 20 23 24 25 37 51 43 38 37 29 23 26 24 26 23 24
25 24 20 15 18 22 23 24 26 26 28 27 27 28 23 22 22 18 18 18 17 11
17 15 11 8 5 1 6 3 9 12 14 15 18 16 15 14 14 14 11 8 11 12
12 9 8 6 6 4 6 9 14 17 17 16 16 14 11 9 11 12 13 8 7 6
11 10 11 19 23 15 19 26 18 14 15 14 12 12 10 14 14 11 11 10 9 7
7 8 4 6 9 10 10 8 12 13 15 14 12 11 13 15 14 12 11 7 9 8
14 11 11 12 9 8 9 12 11 12 13 16 16 12 12 10 9 10 10 7 5 2
18 16 15 15 14 13 11 10 12 13 12 13 13 13 13 12 10 9 8 5 2 1
14 13 12 12 12 11 12 11 10 12 13 13 14 15 14 11 9 6 4 2 1 2
11 9 7 7 8 8 9 11 12 13 14 14 15 14 12 9 7 4 1 2 3 6
8 9 7 6 6 6 8 9 8 9 11 13 11 10 7 5 4 3 3 4 7 10
5 6 6 5 6 6 6 7 9 11 11 10 10 8 6 5 6 5 6 8 10 12
Wind_Direction_850mb
206 210 215 220 223 232 214 204 200 192 242 253 255 253 255 264 268 266 281 268 266 275
197 213 198 197 197 198 200 206 210 231 251 249 264 271 278 270 251 257 255 277 278 278
189 186 201 219 219 231 226 231 234 242 233 236 245 266 263 249 238 251 275 284 280 283
152 154 141 156 175 189 204 215 217 227 232 236 242 231 228 232 261 265 281 276 271 255
69 70 87 95 100 143 161 212 277 262 246 253 249 232 237 253 260 270 244 232 256 257
93 82 67 55 13 320 303 309 289 257 244 231 230 248 247 240 206 248 240 229 230 222
327 303 256 259 257 274 291 272 252 230 234 229 237 224 239 246 231 213 175 182 192 205
282 282 259 231 212 218 230 198 203 205 215 217 230 219 195 183 176 179 194 182 177 172
162 149 140 143 145 128 119 132 136 141 147 146 144 144 147 148 175 157 139 147 141 98
130 133 137 132 136 129 139 157 160 156 160 161 159 155 151 152 161 153 152 157 122 356
126 130 134 138 149 154 162 168 176 173 165 162 166 162 165 165 150 149 174 166 220 316
128 129 138 141 147 155 152 155 161 162 160 161 174 167 163 156 162 173 236 292 304 328
136 136 143 149 161 169 171 173 176 189 179 171 171 164 159 176 194 219 254 289 318 327
150 146 148 160 177 188 202 192 198 200 196 195 193 191 205 220 236 256 288 305 309 314